Weather in Ilovka

Russia / Belgorod Oblast     50°42′26″N   38°37′58″E
temp.,
°C
wind,
m/s
gust,
m/s
humid.,
%
clouds,
%
prec.,
mm/h
press.,
hPa
HPBL,
m
12 may, wed
wed1200:00+8e81579100 0.0 10221059
03:00+7ene5128285 0.0 1022540
06:00+7ene61285100 0.0 1022415
09:00+10ene597397 0.1 1021772
12:00+13ese5764100 0.4 10191499
15:00+12e587396 1.5 1018381
18:00+12se6107954 1.4 1017781
21:00+9ese37916 2.1 1017113
13 may, thu
thu1300:00+8e369278 0.0 1016101
03:00+9s2494100 0.7 1016139
06:00+9ne1193100 0.4 101651
09:00+12se2688100 1.3 1016348
12:00+17s5867100 0.2 10151296
15:00+19ssw586565 1.1 10141363
18:00+18sw347649 0.7 1014502
21:00+14ene2186100 0.8 101511
14 may, fri
fri1400:00+13e2286100 0.0 101513
03:00+13ese229037 0.0 101518
06:00+14ese279099 0.0 1015176
09:00+19se5107367 0.0 1014529
12:00+23sse795799 0.0 10131123
15:00+24se5760100 0.0 1012908
18:00+20e5972100 0.1 1011144
21:00+18e37836 0.2 1012101
15 may, sat
sat1500:00+17se39904 0.0 1010147
03:00+16sse359245 0.0 101080
06:00+16s3695100 1.6 1011176
09:00+19s3486100 4.2 1011231
12:00+24s5763100 0.0 10121353
15:00+24sw465650 0.0 10121523
18:00+22wsw36695 0.0 1011238
21:00+17wnw117776 0.1 101211
16 may, sun
sun1600:00+16nw22820 0.0 101311
03:00+15n1184100 0.0 101311
06:00+16nne11835 0.0 101320
09:00+20ne3369100 0.0 1013400
12:00+24ne335864 0.0 10131098
15:00+25ne4557100 0.0 10121509
18:00+23ne3675100 0.9 1011180
21:00+19ne3382100 0.9 101145